KM6ZMV Weather Reports


Display with metric or nautical units.
time (UTC)temp
F
wind
direction
speed
MPH
gust
MPH
rain 1hr
in
rain 24hr
in
rain mn
in
humidity
%
barometer
mb
20260507062510 55 9 4.0 12.0 0.00 0.00 0.00 74 1020.7
20260507062003 55 338 1.0 12.0 0.00 0.00 0.00 75 1020.7
20260507061507 55 342 2.0 9.0 0.00 0.00 0.00 75 1020.7
20260507061004 55 360 4.0 11.0 0.00 0.00 0.00 75 1020.8
20260507060504 55 342 3.0 11.0 0.00 0.00 0.00 75 1020.8
20260507060012 55 310 3.0 9.0 0.00 0.00 0.00 76 1020.7
20260507055503 55 306 1.0 11.0 0.00 0.00 0.00 76 1020.7
20260507055007 55 330 3.0 11.0 0.00 0.00 0.00 76 1020.7
20260507054518 55 9 4.0 9.0 0.00 0.00 0.00 76 1020.7
20260507054007 55 11 2.0 10.0 0.00 0.00 0.00 76 1020.8
20260507053504 55 26 3.0 10.0 0.00 0.00 0.00 76 1020.7
20260507053022 55 339 4.0 11.0 0.00 0.00 0.00 75 1020.8
20260507052508 55 321 2.0 11.0 0.00 0.00 0.00 75 1020.7
20260507052008 55 346 4.0 10.0 0.00 0.00 0.00 75 1020.6
20260507051536 56 338 3.0 12.0 0.00 0.00 0.00 75 1020.7
20260507051003 56 9 4.0 14.0 0.00 0.00 0.00 75 1020.7
20260507050503 56 348 8.0 14.0 0.00 0.00 0.00 74 1020.7
20260507050011 56 351 5.0 12.0 0.00 0.00 0.00 74 1020.7
20260507045503 56 344 7.0 13.0 0.00 0.00 0.00 74 1020.7
20260507045003 56 360 5.0 13.0 0.00 0.00 0.00 74 1020.8
20260507044515 56 9 4.0 10.0 0.00 0.00 0.00 74 1020.8
20260507044004 57 73 2.0 15.0 0.00 0.00 0.00 74 1020.8
20260507043504 57 22 4.0 17.0 0.00 0.00 0.00 73 1020.7
20260507043020 57 352 8.0 17.0 0.00 0.00 0.00 73 1020.7
20260507042505 57 346 6.0 15.0 0.00 0.00 0.00 73 1020.6
20260507042007 57 9 6.0 12.0 0.00 0.00 0.00 73 1020.3
20260507041524 57 344 4.0 14.0 0.00 0.00 0.00 73 1020.2
20260507041009 57 333 7.0 14.0 0.00 0.00 0.00 73 1020.2
20260507040510 57 352 8.0 14.0 0.00 0.00 0.00 72 1020.1
20260507040026 57 9 4.0 16.0 0.00 0.00 0.00 72 1020.2
20260507035504 58 17 9.0 16.0 0.00 0.00 0.00 72 1020.1
20260507035005 58 352 5.0 13.0 0.00 0.00 0.00 72 1020.0
20260507034520 58 360 8.0 13.0 0.00 0.00 0.00 72 1019.9
20260507034006 58 50 5.0 12.0 0.00 0.00 0.00 72 1020.0
20260507033507 58 9 3.0 12.0 0.00 0.00 0.00 72 1019.8
20260507033019 59 325 5.0 12.0 0.00 0.00 0.00 71 1019.7
20260507032507 59 352 6.0 13.0 0.00 0.00 0.00 71 1019.7
20260507032007 59 9 9.0 13.0 0.00 0.00 0.00 71 1019.7
20260507031520 59 352 5.0 10.0 0.00 0.00 0.00 71 1019.7
20260507031007 60 16 3.0 10.0 0.00 0.00 0.00 71 1019.5
20260507030507 60 302 5.0 10.0 0.00 0.00 0.00 71 1019.5
20260507030024 60 16 4.0 11.0 0.00 0.00 0.00 71 1019.4
20260507025510 60 324 4.0 11.0 0.00 0.00 0.00 71 1019.4
20260507025010 60 9 4.0 14.0 0.00 0.00 0.00 70 1019.4
20260507024514 60 349 4.0 14.0 0.00 0.00 0.00 70 1019.3
20260507024004 61 352 7.0 14.0 0.00 0.00 0.00 70 1019.3
20260507023508 61 338 5.0 11.0 0.00 0.00 0.00 70 1019.3
20260507023014 61 345 2.0 12.0 0.00 0.00 0.00 70 1019.3
20260507022504 61 17 4.0 10.0 0.00 0.00 0.00 70 1019.2
20260507022010 61 349 3.0 11.0 0.00 0.00 0.00 70 1019.3
20260507021519 61 292 3.0 11.0 0.00 0.00 0.00 70 1019.3
20260507021009 61 300 5.0 10.0 0.00 0.00 0.00 70 1019.2
20260507020507 61 352 5.0 10.0 0.00 0.00 0.00 1019.3
20260507020024 62 9 3.0 11.0 0.00 0.00 0.00 1019.3
20260507015513 62 304 3.0 11.0 0.00 0.00 0.00 1019.3
20260507015008 62 329 4.0 13.0 0.00 0.00 0.00 1019.3
20260507014536 62 352 6.0 13.0 0.00 0.00 0.00 68 1019.3
20260507014009 63 306 3.0 12.0 0.00 0.00 0.00 68 1019.4
20260507013504 63 323 6.0 12.0 0.00 0.00 0.00 68 1019.4
20260507013013 63 9 4.0 13.0 0.00 0.00 0.00 67 1019.4
20260507012504 63 276 5.0 14.0 0.00 0.00 0.00 67 1019.4
20260507012008 63 18 5.0 14.0 0.00 0.00 0.00 66 1019.4
20260507011531 64 352 7.0 12.0 0.00 0.00 0.00 66 1019.4
20260507011004 64 5 4.0 12.0 0.00 0.00 0.00 66 1019.3
20260507010510 64 323 2.0 13.0 0.00 0.00 0.00 66 1019.3
20260507010022 65 346 6.0 13.0 0.00 0.00 0.00 65 1019.3
20260507005509 65 346 4.0 12.0 0.00 0.00 0.00 64 1019.3
20260507005013 66 26 4.0 12.0 0.00 0.00 0.00 63 1019.2
20260507004526 66 341 3.0 12.0 0.00 0.00 0.00 63 1019.3
20260507004009 66 12 3.0 12.0 0.00 0.00 0.00 63 1019.2
20260507003512 66 26 4.0 11.0 0.00 0.00 0.00 64 1019.1
20260507003027 66 346 6.0 12.0 0.00 0.00 0.00 64 1019.1
20260507002505 66 342 5.0 13.0 0.00 0.00 0.00 65 1019.1
20260507002007 67 347 7.0 13.0 0.00 0.00 0.00 64 1019.0
20260507001517 67 9 6.0 10.0 0.00 0.00 0.00 64 1019.0
20260507001005 67 360 3.0 9.0 0.00 0.00 0.00 64 1019.0
20260507000508 67 352 4.0 9.0 0.00 0.00 0.00 65 1019.0
20260507000023 67 305 3.0 8.0 0.00 0.00 0.00 66 1018.9
20260506235509 67 336 4.0 9.0 0.00 0.00 0.00 65 1018.9
20260506235009 68 9 4.0 9.0 0.00 0.00 0.00 64 1019.0
20260506234524 68 60 2.0 8.0 0.00 0.00 0.00 64 1018.9
20260506234011 68 9 3.0 8.0 0.00 0.00 0.00 64 1018.8
20260506233507 68 323 2.0 9.0 0.00 0.00 0.00 63 1018.8
20260506233026 69 348 3.0 9.0 0.00 0.00 0.00 63 1018.7
20260506232514 69 352 3.0 8.0 0.00 0.00 0.00 62 1018.7
20260506232008 68 5 1.0 3.0 0.00 0.00 0.00 61 1018.8
20260506231515 68 34 1.0 3.0 0.00 0.00 0.00 62 1018.9
20260506231009 68 294 1.0 5.0 0.00 0.00 0.00 63 1019.0
20260506230505 69 323 2.0 5.0 0.00 0.00 0.00 62 1019.1
20260506230022 68 5 1.0 4.0 0.00 0.00 0.00 63 1019.1
20260506225506 68 360 1.0 3.0 0.00 0.00 0.00 63 1019.2
20260506225012 68 24 1.0 3.0 0.00 0.00 0.00 61 1019.3
20260506224524 68 31 1.0 5.0 0.00 0.00 0.00 62 1019.3
20260506224012 68 352 3.0 5.0 0.00 0.00 0.00 62 1019.4
20260506223507 68 33 4.0 5.0 0.00 0.00 0.00 64 1019.4
20260506223026 68 311 3.0 5.0 0.00 0.00 0.00 64 1019.4
20260506222509 67 28 2.0 8.0 0.00 0.00 0.00 67 1019.4
20260506222015 66 69 3.0 8.0 0.00 0.00 0.00 65 1019.4
20260506221528 66 68 2.0 4.0 0.00 0.00 0.00 66 1019.4
20260506221015 66 53 2.0 4.0 0.00 0.00 0.00 65 1019.4
20260506220506 67 91 2.0 7.0 0.00 0.00 0.00 65 1019.6
20260506220016 66 105 1.0 7.0 0.00 0.00 0.00 66 1019.5
20260506215507 66 111 2.0 8.0 0.00 0.00 0.00 66 1019.5
20260506215007 66 84 5.0 8.0 0.00 0.00 0.00 65 1019.5
20260506214523 67 115 3.0 7.0 0.00 0.00 0.00 64 1019.5
20260506214007 68 352 1.0 7.0 0.00 0.00 0.00 63 1019.4
20260506213506 66 122 3.0 7.0 0.00 0.00 0.00 67 1019.4
20260506213024 66 95 2.0 7.0 0.00 0.00 0.00 67 1019.5
20260506212509 65 116 2.0 4.0 0.00 0.00 0.00 66 1019.5
20260506212010 66 76 1.0 5.0 0.00 0.00 0.00 67 1019.6
20260506211530 66 269 2.0 5.0 0.00 0.00 0.00 67 1019.7
20260506211010 64 76 1.0 5.0 0.00 0.00 0.00 68 1019.7
20260506210511 64 107 1.0 4.0 0.00 0.00 0.00 69 1019.8
20260506210027 65 347 2.0 6.0 0.00 0.00 0.00 69 1019.8
20260506205508 65 75 1.0 6.0 0.00 0.00 0.00 69 1019.8
20260506205006 64 13 2.0 6.0 0.00 0.00 0.00 70 1019.8
20260506204524 64 77 2.0 6.0 0.00 0.00 0.00 70 1019.8
20260506204010 64 79 1.0 4.0 0.00 0.00 0.00 70 1019.7
20260506203509 64 115 3.0 4.0 0.00 0.00 0.00 70 1019.6
20260506203027 63 98 1.0 5.0 0.00 0.00 0.00 70 1019.7
20260506202507 63 99 1.0 5.0 0.00 0.00 0.00 72 1019.7
20260506202009 63 133 1.0 3.0 0.00 0.00 0.00 72 1019.6
20260506201528 62 237 1.0 4.0 0.00 0.00 0.00 72 1019.7
20260506201009 63 296 2.0 4.0 0.00 0.00 0.00 70 1019.8
20260506200509 63 352 1.0 4.0 0.00 0.00 0.00 70 1019.8
20260506200026 64 259 1.0 3.0 0.00 0.00 0.00 70 1019.9
20260506195507 63 34 1.0 3.0 0.00 0.00 0.00 73 1020.0
20260506195010 61 350 1.0 6.0 0.00 0.00 0.00 73 1020.0
20260506194519 62 305 2.0 6.0 0.00 0.00 0.00 73 1020.2
20260506194006 62 15 1.0 4.0 0.00 0.00 0.00 74 1020.3
20260506193505 61 315 0.0 2.0 0.00 0.00 0.00 74 1020.4
20260506193028 61 49 0.0 3.0 0.00 0.00 0.00 74 1020.4
20260506192507 61 290 0.0 3.0 0.00 0.00 0.00 74 1020.3
20260506192009 61 9 2.0 3.0 0.00 0.00 0.00 75 1020.2
20260506191526 61 88 2.0 2.0 0.00 0.00 0.00 75 1020.1
20260506191008 61 163 1.0 4.0 0.00 0.00 0.00 75 1020.1
20260506190510 61 184 1.0 4.0 0.00 0.00 0.00 74 1020.1
20260506190026 61 305 0.0 3.0 0.00 0.00 0.00 75 1020.2
20260506185511 61 286 1.0 4.0 0.00 0.00 0.00 76 1020.2
20260506185014 61 179 2.0 4.0 0.00 0.00 0.00 75 1020.2
20260506184527 60 309 1.0 4.0 0.00 0.00 0.00 78 1020.2
20260506184009 60 252 1.0 4.0 0.00 0.00 0.00 76 1020.2
20260506183507 60 161 2.0 6.0 0.00 0.00 0.00 77 1020.2
20260506183022 60 214 1.0 6.0 0.00 0.00 0.00 77 1020.1
20260506182507 59 54 0.0 2.0 0.00 0.00 0.00 78 1020.2
20260506182002 59 84 0.0 2.0 0.00 0.00 0.00 76 1020.2
20260506181507 59 58 0.0 3.0 0.00 0.00 0.00 77 1020.2
20260506181004 59 331 1.0 3.0 0.00 0.00 0.00 77 1020.2
20260506180503 59 290 0.0 2.0 0.00 0.00 0.00 78 1020.1
20260506180011 59 259 0.0 2.0 0.00 0.00 0.00 78 1020.1
20260506175504 59 216 1.0 2.0 0.00 0.00 0.00 78 1020.0
20260506175004 58 331 1.0 2.0 0.00 0.00 0.00 79 1020.0
20260506174516 58 282 0.0 2.0 0.00 0.00 0.00 79 1020.1
20260506174010 58 218 0.0 2.0 0.00 0.00 0.00 79 1020.0
20260506173505 58 85 0.0 2.0 0.00 0.00 0.00 79 1020.0
20260506173022 57 175 1.0 2.0 0.00 0.00 0.00 79 1019.9
20260506172507 58 183 2.0 2.0 0.00 0.00 0.00 79 1019.9
20260506172008 58 94 0.0 2.0 0.00 0.00 0.00 79 1019.8
20260506171525 58 186 0.0 2.0 0.00 0.00 0.00 79 1019.8
20260506171005 58 208 1.0 2.0 0.00 0.00 0.00 79 1019.8
20260506170502 57 42 0.0 2.0 0.00 0.00 0.00 78 1019.8
20260506170011 58 13 0.0 3.0 0.00 0.00 0.00 78 1019.8
20260506165503 58 5 1.0 3.0 0.00 0.00 0.00 78 1019.9
20260506165005 58 313 2.0 3.0 0.00 0.00 0.00 78 1019.9
20260506164512 58 348 1.0 4.0 0.00 0.00 0.00 79 1019.8
20260506164004 57 5 2.0 4.0 0.00 0.00 0.00 78 1019.8
20260506163506 58 10 2.0 4.0 0.00 0.00 0.00 79 1019.8
20260506163022 57 313 1.0 4.0 0.00 0.00 0.00 79 1020.0
20260506162507 58 281 1.0 3.0 0.00 0.00 0.00 78 1019.9
20260506162010 58 11 1.0 3.0 0.00 0.00 0.00 79 1019.6
20260506161524 57 5 1.0 2.0 0.00 0.00 0.00 80 1019.7
20260506161011 57 119 0.0 2.0 0.00 0.00 0.00 80 1019.6
20260506160507 56 5 1.0 2.0 0.00 0.00 0.00 81 1019.7
20260506160006 56 72 0.0 3.0 0.00 0.00 0.00 81 1019.5
20260506155503 56 58 1.0 4.0 0.00 0.00 0.00 81 1019.4
20260506155003 56 86 1.0 4.0 0.00 0.00 0.00 81 1019.3
20260506154511 56 5 2.0 4.0 0.00 0.00 0.00 81 1019.1
20260506154006 56 152 0.0 5.0 0.00 0.00 0.00 81 1019.1
20260506153506 56 67 2.0 5.0 0.00 0.00 0.00 81 1019.2
20260506153016 56 72 1.0 5.0 0.00 0.00 0.00 82 1019.5
20260506152507 56 324 1.0 5.0 0.00 0.00 0.00 82 1019.7
20260506152008 55 10 1.0 5.0 0.00 0.00 0.00 82 1019.8
20260506151522 55 325 1.0 6.0 0.00 0.00 0.00 82 1019.8
20260506151008 55 327 4.0 6.0 0.00 0.00 0.00 82 1019.9
20260506150508 55 360 1.0 6.0 0.00 0.00 0.00 82 1019.8
20260506150026 55 345 3.0 8.0 0.00 0.00 0.00 82 1019.9
20260506145517 56 343 4.0 8.0 0.00 0.00 0.00 82 1019.8
20260506145010 56 343 2.0 5.0 0.00 0.00 0.00 82 1019.7
20260506144524 56 352 2.0 5.0 0.00 0.00 0.00 82 1019.4
20260506144004 56 352 3.0 5.0 0.00 0.00 0.00 82 1019.6
20260506143504 56 327 2.0 4.0 0.00 0.00 0.00 82 1019.6
20260506143015 56 352 1.0 4.0 0.00 0.00 0.00 82 1019.4
20260506142506 56 302 2.0 4.0 0.00 0.00 0.00 82 1019.3
20260506142008 56 15 2.0 4.0 0.00 0.00 0.00 82 1019.1
20260506141520 56 352 2.0 4.0 0.00 0.00 0.00 83 1019.0
20260506141009 56 342 2.0 4.0 0.00 0.00 0.00 82 1018.9
20260506140508 56 340 2.0 5.0 0.00 0.00 0.00 83 1019.0
20260506140036 56 350 1.0 5.0 0.00 0.00 0.00 83 1018.9
20260506135509 56 24 3.0 4.0 0.00 0.00 0.00 83 1019.0
20260506135014 56 360 1.0 3.0 0.00 0.00 0.00 83 1019.0
20260506134533 56 33 1.0 3.0 0.00 0.00 0.00 83 1018.8
20260506134010 56 336 0.0 2.0 0.00 0.00 0.00 83 1018.9
20260506133503 56 338 1.0 2.0 0.00 0.00 0.00 83 1018.8
20260506133016 56 360 1.0 2.0 0.00 0.00 0.00 83 1018.8
20260506132508 56 322 0.0 2.0 0.00 0.00 0.00 83 1018.7
20260506132007 56 49 0.0 2.0 0.00 0.00 0.00 83 1018.7
20260506131532 56 53 0.0 2.0 0.00 0.00 0.00 83 1018.6
20260506131007 56 46 0.0 2.0 0.00 0.00 0.00 83 1018.5
20260506130507 56 5 0.0 2.0 0.00 0.00 0.00 83 1018.5
20260506130022 56 9 0.0 2.0 0.00 0.00 0.00 83 1018.4
20260506125508 56 360 0.0 2.0 0.00 0.00 0.00 83 1018.4
20260506125007 56 348 1.0 2.0 0.00 0.00 0.00 83 1018.4
20260506124523 56 352 0.0 2.0 0.00 0.00 0.00 83 1018.3
20260506124010 56 352 0.0 2.0 0.00 0.00 0.00 83 1018.4
20260506123509 56 335 0.0 2.0 0.00 0.00 0.00 83 1018.3
20260506123036 56 340 0.0 3.0 0.00 0.00 0.00 83 1018.3
20260506122506 56 360 1.0 3.0 0.00 0.00 0.00 83 1018.5
20260506122003 56 344 1.0 3.0 0.00 0.00 0.00 83 1018.5
20260506121517 56 9 1.0 4.0 0.00 0.00 0.00 83 1018.5
20260506121006 56 349 2.0 5.0 0.00 0.00 0.00 83 1018.5
20260506120507 56 298 1.0 5.0 0.00 0.00 0.00 83 1018.4
20260506120030 56 340 2.0 6.0 0.00 0.00 0.00 82 1018.4
20260506115514 56 341 2.0 6.0 0.00 0.00 0.00 82 1018.4
20260506115006 56 352 1.0 4.0 0.00 0.00 0.00 82 1018.3
20260506114523 56 294 1.0 4.0 0.00 0.00 0.00 82 1018.2
20260506114007 56 334 1.0 5.0 0.00 0.00 0.00 82 1018.1
20260506113504 56 298 2.0 5.0 0.00 0.00 0.00 82 1018.2
20260506113010 56 308 2.0 5.0 0.00 0.00 0.00 82 1018.1
20260506112502 56 349 1.0 4.0 0.00 0.00 0.00 82 1018.1
20260506112007 56 302 1.0 4.0 0.00 0.00 0.00 81 1018.2
20260506111515 56 342 1.0 5.0 0.00 0.00 0.00 81 1018.1
20260506111004 56 10 1.0 5.0 0.00 0.00 0.00 81 1017.9
20260506110509 56 360 2.0 5.0 0.00 0.00 0.00 81 1017.9
20260506110019 56 352 2.0 5.0 0.00 0.00 0.00 81 1017.8
20260506105507 56 328 1.0 4.0 0.00 0.00 0.00 80 1017.6
20260506105008 56 5 2.0 6.0 0.00 0.00 0.00 80 1017.6
20260506104526 56 329 2.0 8.0 0.00 0.00 0.00 80 1017.5
20260506104007 56 360 4.0 8.0 0.00 0.00 0.00 80 1017.4
20260506103510 56 352 0.0 5.0 0.00 0.00 0.00 80 1017.4
20260506103010 57 10 2.0 5.0 0.00 0.00 0.00 80 1017.4
20260506102503 56 360 3.0 5.0 0.00 0.00 0.00 80 1017.2
20260506102004 57 13 2.0 6.0 0.00 0.00 0.00 80 1017.1
20260506101511 57 339 2.0 6.0 0.00 0.00 0.00 80 1017.0
20260506101007 57 319 1.0 6.0 0.00 0.00 0.00 80 1017.0
20260506100506 57 5 1.0 6.0 0.00 0.00 0.00 80 1017.0
20260506100021 57 352 3.0 6.0 0.00 0.00 0.00 79 1017.0
20260506095507 57 318 3.0 5.0 0.00 0.00 0.00 80 1016.9
20260506095007 57 317 0.0 5.0 0.00 0.00 0.00 80 1016.9
20260506094526 57 347 1.0 4.0 0.00 0.00 0.00 80 1017.0
20260506094011 57 14 3.0 5.0 0.00 0.00 0.00 80 1016.8
20260506093511 57 342 1.0 5.0 0.00 0.00 0.00 79 1016.9
20260506093032 57 9 2.0 5.0 0.00 0.00 0.00 79 1016.8
20260506092509 57 13 1.0 6.0 0.00 0.00 0.00 79 1016.9
20260506092003 57 32 3.0 7.0 0.00 0.00 0.00 79 1016.9
20260506091510 57 345 3.0 7.0 0.00 0.00 0.00 79 1016.9
20260506091007 57 9 2.0 5.0 0.00 0.00 0.00 79 1016.8
20260506090506 57 9 2.0 5.0 0.00 0.00 0.00 79 1016.8
20260506090013 57 327 0.0 4.0 0.00 0.00 0.00 79 1016.8
20260506085511 58 285 1.0 4.0 0.00 0.00 0.00 79 1016.8
20260506085006 58 360 1.0 4.0 0.00 0.00 0.00 78 1016.8
20260506084522 58 352 1.0 4.0 0.00 0.00 0.00 78 1016.8
20260506084008 58 351 1.0 5.0 0.00 0.00 0.00 79 1016.8
20260506083508 58 13 2.0 5.0 0.00 0.00 0.00 78 1016.8
20260506083029 58 9 2.0 6.0 0.00 0.00 0.00 78 1016.8
20260506082511 58 14 2.0 6.0 0.00 0.00 0.00 78 1016.7
20260506082010 58 299 2.0 4.0 0.00 0.00 0.00 78 1016.8
20260506081528 58 351 2.0 7.0 0.00 0.00 0.00 78 1016.7
20260506081011 58 352 4.0 7.0 0.00 0.00 0.00 78 1016.7
20260506080504 58 350 3.0 6.0 0.00 0.00 0.00 78 1016.6
20260506073507 59 360 3.0 6.0 0.00 0.00 0.00 78 1016.4
20260506073024 59 5 3.0 5.0 0.00 0.00 0.00 78 1016.3
20260506072509 59 20 3.0 5.0 0.00 0.00 0.00 78 1016.4
20260506072011 59 13 2.0 4.0 0.00 0.00 0.00 78 1016.3
20260506071527 60 352 1.0 5.0 0.00 0.00 0.00 78 1016.4
20260506071014 60 9 3.0 5.0 0.00 0.00 0.00 77 1016.4
20260506070510 60 352 2.0 4.0 0.00 0.00 0.00 77 1016.4